Location: North Bay Shore
(40.7362°N, 73.2626°W)
Time: 04:41:21
(UTC+00:00)

Cosmos 1726 Rocket - Pass Details

Date: 29 October 2020
Orbit: 603 x 629 km, 82.5° (Epoch: 29 November)

Event Time Altitude Azimuth Distance (km) Brightness Sun altitude
Rises 22:12:32 0° 181° (S) 2,853 7.2 -4.5°
Reaches altitude 10° 22:14:44 10° 179° (S) 1,957 6.3 -4.9°
Maximum altitude 22:19:03 71° 95° (E) 651 3.5 -5.7°
Drops below altitude 10° 22:23:25 10° 12° (NNE) 1,988 5.9 -6.5°
Sets 22:25:40 0° 11° (N) 2,903 6.8 -6.9°
